Flag for Libya Weather past 2 weeks in Tripoli, Libya

Now
100 °F

Sandstorm.


Feels Like: 95 °F
Forecast: 65 / 85 °F
Wind: 22 mph from Southwest

Location: Tripoli International Airport


UV Index: 7 (High)

Visibility: 2 mi


Pressure: 29.65 "Hg

Humidity: 9%

Dew point: 32 °F

Location of TripoliLocation

Historic Weather in Tripoli

°F

Tripoli temperature yesterday

Maximum temperature yesterday: 86 °F (at 1:50 PM)
Minimum temperature yesterday: 52 °F (at 12:20 AM)
Average temperature yesterday: 68 °F

Past Weeks' High & Low Weather Summary

 TemperatureHumidityPressure
High102 °F (Apr 20, 2:50 PM)94% (Apr 8, 6:20 AM)30.24 "Hg (Apr 8, 6:20 AM)
Low46 °F (Apr 18, 5:20 AM)9% (Apr 20, 3:20 PM)29.65 "Hg (Apr 20, 3:50 PM)
Average65 °F57%30.00 "Hg
* Reported Apr 5 3:50 PM — Apr 20 3:50 PM, Tripoli, Weather by CustomWeather, © 2014

Note: Actual official high and low records may vary slightly from our data, if they occured in-between our weather recording intervals... More about our weather records

Advertising

Historic Weather Conditions — Data for Previous 24 hours

 ConditionsComfort  
Time TempWeatherWind HumidityBarometerVisibility
3:50 PM
Apr 20
102 °FSandstorm.21 mph9%29.65 "Hg2 mi
3:20 PM102 °FSandstorm.21 mph9%29.68 "Hg2 mi
2:50 PM102 °FClear.23 mph10%29.68 "Hg2 mi
2:20 PM100 °FSandstorm.21 mph10%29.71 "Hg2 mi
1:51 PM100 °FSandstorm.23 mph10%29.71 "Hg3 mi
1:20 PM99 °FClear.18 mph10%29.74 "Hg4 mi
12:20 PM95 °FClear.23 mph11%29.74 "Hg4 mi
11:50 AM93 °FClear.23 mph11%29.77 "Hg4 mi
10:50 AM91 °FHot.21 mph12%29.77 "Hg4 mi
9:50 AM88 °FClear.23 mph13%29.80 "Hg5 mi
9:20 AM84 °FSunny.9 mph19%29.80 "Hg10 mi
8:50 AM81 °FClear.12 mph21%29.80 "Hg5 mi
8:20 AM75 °FSunny.12 mph25%29.80 "Hg10 mi
7:50 AM73 °FSunny.14 mph25%29.80 "Hg10 mi
7:20 AM68 °FSunny.12 mph30%29.80 "Hg10 mi
6:50 AM66 °FScattered clouds.12 mph32%29.77 "HgN/A
6:20 AM66 °FPassing clouds.10 mph32%29.77 "HgN/A
5:50 AM66 °FPassing clouds.10 mph32%29.77 "HgN/A
5:20 AM66 °FPassing clouds.9 mph32%29.80 "HgN/A
4:50 AM66 °FPassing clouds.9 mph32%29.80 "HgN/A
4:30 AM68 °FPassing clouds.9 mph30%29.80 "HgN/A
3:50 AM68 °FPassing clouds.9 mph30%29.80 "HgN/A
3:20 AM70 °FClear.9 mph29%29.83 "Hg10 mi
2:50 AM70 °FClear.12 mph29%29.83 "Hg10 mi
2:20 AM70 °FClear.12 mph29%29.83 "Hg10 mi
1:50 AM68 °FClear.12 mph30%29.86 "Hg10 mi
1:20 AM64 °FClear.8 mph37%29.86 "Hg10 mi
12:50 AM66 °FClear.7 mph35%29.86 "Hg10 mi
12:20 AM66 °FClear.7 mph37%29.89 "Hg10 mi
11:50 PM
Apr 19
66 °FClear.9 mph35%29.89 "Hg10 mi
11:20 PM66 °FClear.7 mph35%29.89 "Hg10 mi
10:50 PM66 °FClear.12 mph40%29.89 "Hg10 mi
10:20 PM66 °FClear.6 mph40%29.89 "Hg10 mi
9:50 PM68 °FClear.6 mph38%29.89 "Hg10 mi
9:20 PM70 °FClear.7 mph33%29.89 "Hg10 mi
8:50 PM72 °FClear.5 mph33%29.86 "Hg10 mi
8:20 PM73 °FClear.10 mph31%29.86 "Hg10 mi
7:50 PM75 °FClear.8 mph27%29.86 "Hg10 mi
6:50 PM82 °FSunny.6 mph16%29.86 "Hg10 mi
5:50 PM84 °FSunny.8 mph15%29.86 "Hg10 mi
5:20 PM86 °FSunny.7 mph15%29.86 "Hg10 mi
4:50 PM86 °FSunny.7 mph14%29.86 "Hg10 mi
4:20 PM86 °FSunny.16 mph15%29.86 "Hg10 mi
Weather by CustomWeather, © 2014

See weather overview